Regional Weather Roundup
Issued by NWS

Home | Current Version | Previous Version | Graphics & Text | Print | Product List | Glossary On
Versions: 1 2 3 4 5 6 7 8 9 10 11 12 13 14 15 16 17 18 19 20 21 22 23 24 25 26 27 28 29 30 31 32 33 34 35 36 37 38 39 40 41 42 43 44 45 46 47 48 49 50
000
ASUS45 KSLC 220110
RWRUT

UTAH REGIONAL WEATHER ROUNDUP
NATIONAL WEATHER SERVICE SALT LAKE CITY UT
700 PM MDT MON JUL 21 2014

UTZ001>011-023>025-220200-

NORTHERN UTAH

CITY           SKY/WX    TMP DP  RH WIND       PRES   REMARKS
HILL AFB       SUNNY     90  36  15 W3        30.05S
LOGAN          NOT AVBL
OGDEN          SUNNY     91  37  15 NW8       30.01F
PROVO AIRPORT  MOSUNNY   90  43  19 SW12      30.06F
SALT LAKE CITY PTSUNNY   93  25   8 SW12      29.99S
VERNAL         SUNNY     91  29  11 SW13      30.08F
WENDOVER       PTSUNNY   84  48  28 N6G20     30.00S
HEBER CITY     SUNNY     88  28  11 SW13      30.14S
WEST JORDAN    SUNNY     93  45  18 S21G26    30.04F

$$

UTZ012>022-026-027-220200-

SOUTHERN UTAH

CITY           SKY/WX    TMP DP  RH WIND       PRES   REMARKS
BRYCE CANYON   SUNNY     79  28  15 W14       30.36S
CEDAR CITY     SUNNY     86  26  11 SW12      30.19F
MILFORD        SUNNY     90  18   7 SW23      30.13S
MOAB/CYNLANDS  SUNNY     96  19   6 VRB6      30.04S
PRICE          SUNNY     90  17   7 S8        30.14F
ST GEORGE      CLEAR     99  36  11 W7        30.00S HX  93
KANAB            N/A     90  28  11 SW10G16   30.18S

$$

REGIONAL REPORTS     COLORADO/ARIZONA

CITY           SKY/WX    TMP DP  RH WIND       PRES   REMARKS
CRAIG, CO      MOSUNNY   87  35  15 CALM      30.20S
GRAND JUNCTION SUNNY     93  19   7 NW13      30.07F
RIFLE          SUNNY     92  29  10 W9        30.12S
MONTROSE       MOSUNNY   92  29  10 W9        30.18S
CORTEZ         SUNNY     88  29  12 NW10      30.22S
PAGE, AZ       SUNNY     99  26   7 N9        30.06F HX  92
GRAND CANYON   SUNNY     83  31  15 SW10G16   30.31F
KINGMAN        NOT AVBL
FLAGSTAFF      SUNNY     81  35  19 SW10G21   30.34S

$$

REGIONAL REPORTS    NEVADA/IDAHO/WYOMING

CITY           SKY/WX    TMP DP  RH WIND       PRES   REMARKS
LAS VEGAS, NV  MOSUNNY  103  25   6 S15G21    29.87F HX  95
ELY            SUNNY     85  22  10 S15G26    30.17F
ELKO           SUNNY     84  43  23 W17G23    30.09R
POCATELLO, ID  MOSUNNY   84  48  28 SW12      30.07S
BURLEY         MOSUNNY   73  56  54 W13G18    30.06R
EVANSTON, WY   SUNNY     81  25  12 S18G29    30.25S
ROCK SPRINGS   MOSUNNY   85  30  13 NW13G20   30.20S

$$


USA.gov is the U.S. government's official web portal to all federal, state and local government web resources and services.